{"data":{"norad_id":67601,"epoch":"2026-09-19T22:02:32.341632Z","epoch_age_seconds":119338,"freshness":"FRESH","line1":"1 67601U 26018N   26262.91842988  .00014940  00000+0  46403-3 0  9991","line2":"2 67601  97.2851 326.4229 0000390 156.3795 203.7466 15.33456679 37108","mean_motion":15.33456679,"eccentricity":3.9e-5,"inclination_deg":97.2851,"raan_deg":326.4229,"arg_perigee_deg":156.3795,"mean_anomaly_deg":203.7466,"bstar":0.00046403,"rev_number":3710,"period_min":93.905489455304,"perigee_km":465.24152403993,"apogee_km":465.77532838317,"semimajor_km":6843.6454262115,"source":"CELESTRAK","updated_at":"2026-09-20T09:00:43.604771Z"}}